{"data":{"norad_id":66944,"epoch":"2026-09-20T04:32:56.395104Z","epoch_age_seconds":108082,"freshness":"FRESH","line1":"1 66944U 25286V   26263.18954161  .00025004  00000+0  74834-3 0  9995","line2":"2 66944  53.1572 170.8993 0001859  77.9978 282.1233 15.34414946 45259","mean_motion":15.34414946,"eccentricity":0.0001859,"inclination_deg":53.1572,"raan_deg":170.8993,"arg_perigee_deg":77.9978,"mean_anomaly_deg":282.1233,"bstar":0.00074834,"rev_number":4525,"period_min":93.846843955338,"perigee_km":461.38711396341,"apogee_km":463.93052184851,"semimajor_km":6840.795817906,"source":"CELESTRAK","updated_at":"2026-09-21T09:00:36.059906Z"}}